Time,TemperatureF,DewpointF,PressureIn,WindDirection,WindDirectionDegrees,WindSpeedMPH,WindSpeedGustMPH,Humidity,HourlyPrecipIn,Conditions,Clouds,dailyrainin,SolarRadiationWatts/m^2,SoftwareType,DateUTC
2013-11-07 00:01:00,47.9,41.0,29.97,SSE,149,0.0,6.0,77,0.00,,---,0.00,0.00,VWS V14.01,2013-11-07 05:01:00,
2013-11-07 00:06:00,48.0,41.2,29.98,SSE,149,0.0,0.0,77,0.00,,---,0.00,0.00,VWS V14.01,2013-11-07 05:06:00,
2013-11-07 00:11:00,48.0,41.2,29.97,SE,143,0.0,3.0,77,0.00,,---,0.00,0.00,VWS V14.01,2013-11-07 05:11:00,
2013-11-07 00:16:00,48.0,41.2,29.97,SE,140,0.0,3.0,77,0.00,,---,0.00,0.00,VWS V14.01,2013-11-07 05:16:00,
2013-11-07 00:21:00,48.0,41.5,29.97,SSE,148,5.0,5.0,78,0.00,,---,0.00,0.00,VWS V14.01,2013-11-07 05:21:00,
2013-11-07 00:26:00,48.2,41.7,29.96,SSE,155,0.0,5.0,78,0.00,,---,0.00,0.00,VWS V14.01,2013-11-07 05:26:00,
2013-11-07 00:31:00,48.2,42.0,29.95,SSW,203,0.0,5.0,79,0.00,,---,0.00,0.00,VWS V14.01,2013-11-07 05:31:00,
2013-11-07 00:36:00,48.5,42.3,29.95,SSW,200,2.0,3.0,79,0.00,,---,0.00,0.00,VWS V14.01,2013-11-07 05:36:00,
2013-11-07 00:41:00,48.6,42.4,29.95,SSW,199,0.0,3.0,79,0.00,,---,0.00,0.00,VWS V14.01,2013-11-07 05:41:00,
2013-11-07 00:46:00,48.6,42.1,29.95,SSW,199,0.0,3.0,78,0.00,,---,0.00,0.00,VWS V14.01,2013-11-07 05:46:00,
2013-11-07 00:51:00,48.6,42.1,29.94,SSW,199,0.0,0.0,78,0.00,,---,0.00,0.00,VWS V14.01,2013-11-07 05:51:00,
2013-11-07 00:56:00,48.5,42.0,29.94,SSE,161,0.0,2.0,78,0.00,,---,0.00,0.00,VWS V14.01,2013-11-07 05:56:00,
2013-11-07 01:01:00,48.5,42.0,29.94,South,186,1.0,2.0,78,0.00,,---,0.00,0.00,VWS V14.01,2013-11-07 06:01:00,
2013-11-07 01:06:00,48.3,41.8,29.93,South,177,0.0,0.0,78,0.00,,---,0.00,0.00,VWS V14.01,2013-11-07 06:06:00,
2013-11-07 01:11:00,48.2,41.7,29.93,South,177,0.0,0.0,78,0.00,,---,0.00,0.00,VWS V14.01,2013-11-07 06:11:00,
2013-11-07 01:16:00,48.0,41.8,29.93,South,177,0.0,0.0,79,0.00,,---,0.00,0.00,VWS V14.01,2013-11-07 06:16:00,
2013-11-07 01:21:00,47.9,42.0,29.93,SSE,164,0.0,2.0,80,0.00,,---,0.00,0.00,VWS V14.01,2013-11-07 06:21:00,
2013-11-07 01:26:00,47.9,42.0,29.93,SSE,164,0.0,2.0,80,0.00,,---,0.00,0.00,VWS V14.01,2013-11-07 06:26:00,
2013-11-07 01:31:00,47.9,42.7,29.92,SSE,167,0.0,3.0,82,0.00,,---,0.00,0.00,VWS V14.01,2013-11-07 06:31:00,
2013-11-07 01:36:00,48.2,43.3,29.92,SSE,158,0.0,1.0,83,0.00,,---,0.00,0.00,VWS V14.01,2013-11-07 06:36:00,
2013-11-07 01:41:00,48.5,43.6,29.92,SSW,209,0.0,3.0,83,0.00,,---,0.00,0.00,VWS V14.01,2013-11-07 06:41:00,
2013-11-07 01:46:00,48.6,43.7,29.91,SSW,212,2.0,4.0,83,0.00,,---,0.00,0.00,VWS V14.01,2013-11-07 06:46:00,
2013-11-07 01:51:00,49.0,44.1,29.91,South,169,0.0,2.0,83,0.00,,---,0.00,0.00,VWS V14.01,2013-11-07 06:51:00,
2013-11-07 01:56:00,49.5,44.6,29.91,SE,142,0.0,4.0,83,0.00,,---,0.00,0.00,VWS V14.01,2013-11-07 06:56:00,
2013-11-07 02:01:00,49.8,44.8,29.91,SSW,196,0.0,4.0,83,0.00,,---,0.00,0.00,VWS V14.01,2013-11-07 07:01:00,
2013-11-07 02:06:00,50.1,44.8,29.90,SE,138,1.0,2.0,82,0.00,,---,0.00,0.00,VWS V14.01,2013-11-07 07:06:00,
2013-11-07 02:11:00,50.4,45.1,29.90,SSW,193,0.0,4.0,82,0.00,,---,0.00,0.00,VWS V14.01,2013-11-07 07:11:00,
2013-11-07 02:16:00,50.7,45.1,29.90,SSE,165,0.0,4.0,81,0.00,,---,0.00,0.00,VWS V14.01,2013-11-07 07:16:00,
2013-11-07 02:21:00,51.0,45.4,29.90,SW,227,0.0,10.0,81,0.00,,---,0.00,0.00,VWS V14.01,2013-11-07 07:21:00,
2013-11-07 02:26:00,51.1,45.2,29.89,SW,219,0.0,10.0,80,0.00,,---,0.00,0.00,VWS V14.01,2013-11-07 07:26:00,
2013-11-07 02:31:00,51.3,45.3,29.89,SW,217,0.0,10.0,80,0.00,,---,0.00,0.00,VWS V14.01,2013-11-07 07:31:00,
2013-11-07 02:36:00,51.4,45.5,29.89,SE,130,0.0,2.0,80,0.00,,---,0.00,0.00,VWS V14.01,2013-11-07 07:36:00,
2013-11-07 02:41:00,51.6,45.6,29.89,South,183,0.0,7.0,80,0.00,,---,0.00,0.00,VWS V14.01,2013-11-07 07:41:00,
2013-11-07 02:46:00,51.7,45.4,29.88,East,94,0.0,7.0,79,0.00,,---,0.00,0.00,VWS V14.01,2013-11-07 07:46:00,
2013-11-07 02:51:00,51.9,45.6,29.88,South,180,0.0,1.0,79,0.00,,---,0.00,0.00,VWS V14.01,2013-11-07 07:51:00,
2013-11-07 02:56:00,51.9,45.6,29.88,South,180,0.0,1.0,79,0.00,,---,0.00,0.00,VWS V14.01,2013-11-07 07:56:00,
2013-11-07 03:01:00,52.0,45.7,29.88,SSW,192,0.0,3.0,79,0.00,,---,0.00,0.00,VWS V14.01,2013-11-07 08:01:00,
2013-11-07 03:06:00,52.0,45.4,29.87,SW,236,2.0,5.0,78,0.00,,---,0.00,0.00,VWS V14.01,2013-11-07 08:06:00,
2013-11-07 03:11:00,52.2,45.6,29.86,SSW,204,2.0,5.0,78,0.00,,---,0.00,0.00,VWS V14.01,2013-11-07 08:11:00,
2013-11-07 03:16:00,52.3,45.7,29.86,South,178,2.0,5.0,78,0.00,,---,0.00,0.00,VWS V14.01,2013-11-07 08:16:00,
2013-11-07 03:21:00,52.3,45.7,29.86,SE,142,2.0,5.0,78,0.00,,---,0.00,0.00,VWS V14.01,2013-11-07 08:21:00,
2013-11-07 03:26:00,52.3,45.3,29.86,SE,141,5.0,5.0,77,0.00,,---,0.00,0.00,VWS V14.01,2013-11-07 08:26:00,
2013-11-07 03:31:00,52.3,45.3,29.86,South,173,2.0,5.0,77,0.00,,---,0.00,0.00,VWS V14.01,2013-11-07 08:31:00,
2013-11-07 03:36:00,52.3,45.7,29.86,SSW,199,0.0,5.0,78,0.00,,---,0.00,0.00,VWS V14.01,2013-11-07 08:36:00,
2013-11-07 03:41:00,52.2,45.6,29.86,SSW,202,2.0,6.0,78,0.00,,---,0.00,0.00,VWS V14.01,2013-11-07 08:41:00,
2013-11-07 03:46:00,52.2,45.6,29.85,SSW,197,0.0,6.0,78,0.00,,---,0.00,0.00,VWS V14.01,2013-11-07 08:46:00,
2013-11-07 03:51:00,52.2,45.6,29.85,SW,215,0.0,3.0,78,0.00,,---,0.00,0.00,VWS V14.01,2013-11-07 08:51:00,
2013-11-07 03:56:00,52.2,45.6,29.85,SSW,197,1.0,7.0,78,0.00,,---,0.00,0.00,VWS V14.01,2013-11-07 08:56:00,
2013-11-07 04:01:00,52.2,45.6,29.85,SE,144,0.0,7.0,78,0.00,,---,0.00,0.00,VWS V14.01,2013-11-07 09:01:00,
2013-11-07 04:06:00,52.2,45.6,29.85,SSW,211,0.0,4.0,78,0.00,,---,0.00,0.00,VWS V14.01,2013-11-07 09:06:00,
2013-11-07 04:11:00,52.0,45.4,29.85,WSW,247,0.0,4.0,78,0.00,,---,0.00,0.00,VWS V14.01,2013-11-07 09:11:00,
2013-11-07 04:16:00,52.2,45.6,29.84,South,182,1.0,4.0,78,0.00,,---,0.00,0.00,VWS V14.01,2013-11-07 09:16:00,
2013-11-07 04:21:00,52.2,45.6,29.84,SSW,211,1.0,2.0,78,0.00,,---,0.00,0.00,VWS V14.01,2013-11-07 09:21:00,
2013-11-07 04:26:00,52.2,45.6,29.84,SSW,199,3.0,4.0,78,0.00,,---,0.00,0.00,VWS V14.01,2013-11-07 09:26:00,
2013-11-07 04:31:00,52.2,45.6,29.84,SSW,199,0.0,4.0,78,0.00,,---,0.00,0.00,VWS V14.01,2013-11-07 09:31:00,
2013-11-07 04:36:00,52.3,45.7,29.83,SSW,207,0.0,3.0,78,0.00,,---,0.00,0.00,VWS V14.01,2013-11-07 09:36:00,
2013-11-07 04:41:00,52.3,45.7,29.84,SSW,202,0.0,3.0,78,0.00,,---,0.00,0.00,VWS V14.01,2013-11-07 09:41:00,
2013-11-07 04:46:00,52.4,45.8,29.83,SSW,197,3.0,4.0,78,0.00,,---,0.00,0.00,VWS V14.01,2013-11-07 09:46:00,
2013-11-07 04:51:00,52.6,46.0,29.82,SW,234,0.0,3.0,78,0.00,,---,0.00,0.00,VWS V14.01,2013-11-07 09:51:00,
2013-11-07 04:56:00,52.6,46.0,29.82,SSW,211,2.0,3.0,78,0.00,,---,0.00,0.00,VWS V14.01,2013-11-07 09:56:00,
2013-11-07 05:01:00,52.6,46.0,29.82,SW,221,0.0,3.0,78,0.00,,---,0.00,0.00,VWS V14.01,2013-11-07 10:01:00,
2013-11-07 05:06:00,52.6,46.0,29.82,SW,218,0.0,0.0,78,0.00,,---,0.00,0.00,VWS V14.01,2013-11-07 10:06:00,
2013-11-07 05:11:00,52.7,46.0,29.82,SW,219,0.0,5.0,78,0.00,,---,0.00,0.00,VWS V14.01,2013-11-07 10:11:00,
2013-11-07 05:16:00,52.7,46.0,29.82,SSW,202,4.0,5.0,78,0.00,,---,0.00,0.00,VWS V14.01,2013-11-07 10:16:00,
2013-11-07 05:21:00,52.9,46.2,29.82,SW,214,3.0,6.0,78,0.00,,---,0.00,0.00,VWS V14.01,2013-11-07 10:21:00,
2013-11-07 05:26:00,52.9,46.2,29.82,SW,220,3.0,6.0,78,0.00,,---,0.00,0.00,VWS V14.01,2013-11-07 10:26:00,
2013-11-07 05:31:00,53.0,46.3,29.81,South,172,5.0,6.0,78,0.00,,---,0.00,0.00,VWS V14.01,2013-11-07 10:31:00,
2013-11-07 05:36:00,53.0,46.3,29.81,SSW,203,1.0,7.0,78,0.00,,---,0.00,0.00,VWS V14.01,2013-11-07 10:36:00,
2013-11-07 05:41:00,53.2,46.5,29.80,South,188,0.0,11.0,78,0.00,,---,0.00,0.00,VWS V14.01,2013-11-07 10:41:00,
2013-11-07 05:46:00,53.3,46.6,29.80,SW,224,0.0,11.0,78,0.00,,---,0.00,0.00,VWS V14.01,2013-11-07 10:46:00,
2013-11-07 05:51:00,53.3,46.6,29.79,SW,215,0.0,4.0,78,0.00,,---,0.00,0.00,VWS V14.01,2013-11-07 10:51:00,
2013-11-07 05:56:00,53.3,46.6,29.79,South,187,1.0,6.0,78,0.00,,---,0.00,0.00,VWS V14.01,2013-11-07 10:56:00,
2013-11-07 06:01:00,53.3,46.6,29.78,SE,132,2.0,8.0,78,0.00,,---,0.00,0.00,VWS V14.01,2013-11-07 11:01:00,
2013-11-07 06:06:00,53.5,46.8,29.78,SW,234,0.0,3.0,78,0.00,,---,0.00,0.00,VWS V14.01,2013-11-07 11:06:00,
2013-11-07 06:11:00,53.5,47.2,29.78,South,180,2.0,4.0,79,0.00,,---,0.00,0.00,VWS V14.01,2013-11-07 11:11:00,
2013-11-07 06:16:00,53.5,47.2,29.77,SW,221,1.0,5.0,79,0.00,,---,0.00,0.00,VWS V14.01,2013-11-07 11:16:00,
2013-11-07 06:21:00,53.6,47.3,29.76,SSW,192,0.0,9.0,79,0.00,,---,0.00,0.00,VWS V14.01,2013-11-07 11:21:00,
2013-11-07 06:26:00,53.6,47.6,29.76,South,185,2.0,9.0,80,0.00,,---,0.00,0.00,VWS V14.01,2013-11-07 11:26:00,
2013-11-07 06:31:00,53.8,47.8,29.76,South,188,0.0,9.0,80,0.00,,---,0.00,0.00,VWS V14.01,2013-11-07 11:31:00,
2013-11-07 06:34:00,53.8,47.8,29.76,South,183,3.0,7.0,80,0.00,,---,0.00,0.00,VWS V14.01,2013-11-07 11:34:00,
2013-11-07 06:39:00,53.8,47.8,29.76,WSW,246,5.0,7.0,80,0.00,,---,0.00,0.00,VWS V14.01,2013-11-07 11:39:00,
2013-11-07 06:44:00,53.9,47.9,29.76,SSW,213,0.0,7.0,80,0.00,,---,0.00,0.00,VWS V14.01,2013-11-07 11:44:00,
2013-11-07 06:49:00,53.9,47.9,29.76,SSW,201,3.0,3.0,80,0.00,,---,0.00,5.00,VWS V14.01,2013-11-07 11:49:00,
2013-11-07 06:54:00,53.9,47.9,29.76,SW,217,1.0,3.0,80,0.00,,---,0.00,0.00,VWS V14.01,2013-11-07 11:54:00,
2013-11-07 06:59:00,53.9,47.9,29.76,SSW,192,2.0,3.0,80,0.00,,---,0.00,5.00,VWS V14.01,2013-11-07 11:59:00,
2013-11-07 07:04:00,53.9,47.9,29.76,SSE,163,2.0,2.0,80,0.00,,---,0.00,5.00,VWS V14.01,2013-11-07 12:04:00,
2013-11-07 07:09:00,54.1,48.1,29.77,SSW,203,0.0,3.0,80,0.00,,---,0.00,5.00,VWS V14.01,2013-11-07 12:09:00,
2013-11-07 07:14:00,54.1,48.4,29.76,SSW,201,0.0,4.0,81,0.00,,---,0.00,9.00,VWS V14.01,2013-11-07 12:14:00,
2013-11-07 07:19:00,54.1,48.4,29.76,SW,227,2.0,4.0,81,0.00,,---,0.00,7.00,VWS V14.01,2013-11-07 12:19:00,
2013-11-07 07:24:00,54.2,48.5,29.77,SE,137,1.0,4.0,81,0.00,,---,0.00,0.00,VWS V14.01,2013-11-07 12:24:00,
2013-11-07 07:29:00,54.2,48.5,29.77,SW,219,2.0,4.0,81,0.00,,---,0.00,11.00,VWS V14.01,2013-11-07 12:29:00,
2013-11-07 07:34:00,54.4,48.7,29.77,South,183,0.0,2.0,81,0.00,,---,0.00,7.00,VWS V14.01,2013-11-07 12:34:00,
2013-11-07 07:39:00,54.5,48.5,29.76,ESE,119,3.0,3.0,80,0.00,,---,0.00,9.00,VWS V14.01,2013-11-07 12:39:00,
2013-11-07 07:44:00,54.5,48.5,29.76,SSE,167,4.0,4.0,80,0.00,,---,0.00,5.00,VWS V14.01,2013-11-07 12:44:00,
2013-11-07 07:49:00,54.7,48.7,29.76,SSE,167,4.0,4.0,80,0.00,,---,0.00,9.00,VWS V14.01,2013-11-07 12:49:00,
2013-11-07 07:54:00,54.7,48.7,29.76,SSE,158,1.0,4.0,80,0.00,,---,0.00,9.00,VWS V14.01,2013-11-07 12:54:00,
2013-11-07 07:59:00,54.8,48.8,29.75,South,183,5.0,5.0,80,0.00,,---,0.00,5.00,VWS V14.01,2013-11-07 12:59:00,
2013-11-07 08:04:00,54.8,48.8,29.75,SSW,193,0.0,0.0,80,0.00,,---,0.00,5.00,VWS V14.01,2013-11-07 13:04:00,
2013-11-07 08:09:00,54.8,48.8,29.75,SSW,193,0.0,1.0,80,0.00,,---,0.00,0.00,VWS V14.01,2013-11-07 13:09:00,
2013-11-07 08:14:00,54.8,48.8,29.75,SSW,193,0.0,1.0,80,0.00,,---,0.00,5.00,VWS V14.01,2013-11-07 13:14:00,
2013-11-07 08:19:00,54.8,48.8,29.75,SSW,193,0.0,0.0,80,0.00,,---,0.00,5.00,VWS V14.01,2013-11-07 13:19:00,
2013-11-07 08:24:00,54.8,48.8,29.75,SSW,193,0.0,0.0,80,0.00,,---,0.00,7.00,VWS V14.01,2013-11-07 13:24:00,
2013-11-07 08:29:00,54.8,48.8,29.75,SSW,193,0.0,0.0,80,0.00,,---,0.00,9.00,VWS V14.01,2013-11-07 13:29:00,
2013-11-07 08:34:00,54.8,49.1,29.75,SSW,193,0.0,0.0,81,0.00,,---,0.00,12.00,VWS V14.01,2013-11-07 13:34:00,
2013-11-07 08:39:00,54.8,49.1,29.75,SSW,193,0.0,0.0,81,0.01,,---,0.01,16.00,VWS V14.01,2013-11-07 13:39:00,
2013-11-07 08:44:00,54.7,49.3,29.75,SSW,193,0.0,0.0,82,0.03,,---,0.03,30.00,VWS V14.01,2013-11-07 13:44:00,
2013-11-07 08:49:00,54.7,49.7,29.75,SSW,193,0.0,0.0,83,0.03,,---,0.03,39.00,VWS V14.01,2013-11-07 13:49:00,
2013-11-07 08:54:00,54.5,49.8,29.75,SSW,193,0.0,0.0,84,0.04,,---,0.04,47.00,VWS V14.01,2013-11-07 13:54:00,
2013-11-07 08:59:00,54.5,50.1,29.74,SSW,193,0.0,0.0,85,0.05,,---,0.05,25.00,VWS V14.01,2013-11-07 13:59:00,
2013-11-07 09:04:00,54.4,50.3,29.74,SSW,193,0.0,0.0,86,0.05,,---,0.05,35.00,VWS V14.01,2013-11-07 14:04:00,
2013-11-07 09:09:00,54.2,50.1,29.74,SSW,193,0.0,0.0,86,0.06,,---,0.06,63.00,VWS V14.01,2013-11-07 14:09:00,
2013-11-07 09:14:00,54.2,50.4,29.73,SSW,193,2.0,2.0,87,0.06,,---,0.06,65.00,VWS V14.01,2013-11-07 14:14:00,
2013-11-07 09:19:00,54.1,50.3,29.73,SSW,193,0.0,0.0,87,0.07,,---,0.07,65.00,VWS V14.01,2013-11-07 14:19:00,
2013-11-07 09:24:00,54.1,50.6,29.73,SSW,193,0.0,0.0,88,0.07,,---,0.07,46.00,VWS V14.01,2013-11-07 14:24:00,
2013-11-07 09:29:00,54.2,50.7,29.73,SSW,193,0.0,2.0,88,0.07,,---,0.07,63.00,VWS V14.01,2013-11-07 14:29:00,
2013-11-07 09:34:00,54.2,51.0,29.73,SSW,193,0.0,2.0,89,0.07,,---,0.07,76.00,VWS V14.01,2013-11-07 14:34:00,
2013-11-07 09:39:00,54.2,51.3,29.73,SW,219,0.0,3.0,90,0.07,,---,0.07,72.00,VWS V14.01,2013-11-07 14:39:00,
2013-11-07 09:44:00,54.2,51.3,29.73,SW,219,0.0,3.0,90,0.07,,---,0.07,81.00,VWS V14.01,2013-11-07 14:44:00,
2013-11-07 09:49:00,54.4,51.5,29.73,SSW,208,0.0,1.0,90,0.04,,---,0.07,63.00,VWS V14.01,2013-11-07 14:49:00,
2013-11-07 09:54:00,54.4,51.5,29.73,SSW,208,0.0,1.0,90,0.04,,---,0.07,51.00,VWS V14.01,2013-11-07 14:54:00,
2013-11-07 09:59:00,54.4,51.5,29.73,SSW,209,0.0,1.0,90,0.04,,---,0.07,46.00,VWS V14.01,2013-11-07 14:59:00,
2013-11-07 10:04:00,54.4,51.8,29.72,SSE,160,0.0,4.0,91,0.02,,---,0.07,46.00,VWS V14.01,2013-11-07 15:04:00,
2013-11-07 10:09:00,54.4,51.8,29.72,SSE,160,0.0,4.0,91,0.02,,---,0.07,42.00,VWS V14.01,2013-11-07 15:09:00,
2013-11-07 10:14:00,54.4,51.8,29.72,SSE,160,0.0,4.0,91,0.02,,---,0.07,58.00,VWS V14.01,2013-11-07 15:14:00,
2013-11-07 10:19:00,54.4,51.8,29.71,SSE,160,0.0,1.0,91,0.00,,---,0.07,70.00,VWS V14.01,2013-11-07 15:19:00,
2013-11-07 10:24:00,54.5,51.9,29.71,SSE,160,1.0,1.0,91,0.00,,---,0.07,69.00,VWS V14.01,2013-11-07 15:24:00,
2013-11-07 10:29:00,54.5,51.9,29.71,SSW,208,0.0,2.0,91,0.00,,---,0.07,76.00,VWS V14.01,2013-11-07 15:29:00,
2013-11-07 10:34:00,54.7,52.1,29.71,SSW,209,2.0,4.0,91,0.00,,---,0.07,70.00,VWS V14.01,2013-11-07 15:34:00,
2013-11-07 10:39:00,54.7,52.1,29.71,SSW,209,2.0,4.0,91,0.00,,---,0.07,51.00,VWS V14.01,2013-11-07 15:39:00,
2013-11-07 10:44:00,54.7,52.1,29.71,SSW,209,1.0,4.0,91,0.00,,---,0.07,58.00,VWS V14.01,2013-11-07 15:44:00,
2013-11-07 10:49:00,54.8,52.2,29.70,SSW,209,0.0,0.0,91,0.00,,---,0.07,53.00,VWS V14.01,2013-11-07 15:49:00,
2013-11-07 10:54:00,54.8,52.2,29.70,SSW,209,0.0,1.0,91,0.01,,---,0.08,53.00,VWS V14.01,2013-11-07 15:54:00,
2013-11-07 10:59:00,54.8,52.2,29.69,SSW,209,0.0,1.0,91,0.01,,---,0.08,70.00,VWS V14.01,2013-11-07 15:59:00,
2013-11-07 11:04:00,54.8,52.2,29.69,SSW,204,2.0,2.0,91,0.01,,---,0.08,51.00,VWS V14.01,2013-11-07 16:04:00,
2013-11-07 11:09:00,54.8,52.2,29.69,SSW,204,2.0,3.0,91,0.01,,---,0.08,65.00,VWS V14.01,2013-11-07 16:09:00,
2013-11-07 11:14:00,54.8,52.5,29.69,SSW,206,0.0,3.0,92,0.01,,---,0.08,62.00,VWS V14.01,2013-11-07 16:14:00,
2013-11-07 11:19:00,55.0,52.7,29.69,SW,227,0.0,2.0,92,0.02,,---,0.09,79.00,VWS V14.01,2013-11-07 16:19:00,
2013-11-07 11:24:00,55.0,52.7,29.69,SW,227,0.0,2.0,92,0.02,,---,0.09,63.00,VWS V14.01,2013-11-07 16:24:00,
2013-11-07 11:29:00,55.0,52.7,29.70,SW,227,2.0,3.0,92,0.02,,---,0.09,63.00,VWS V14.01,2013-11-07 16:29:00,
2013-11-07 11:34:00,55.0,52.7,29.69,SW,227,0.0,2.0,92,0.02,,---,0.09,76.00,VWS V14.01,2013-11-07 16:34:00,
2013-11-07 11:39:00,55.0,52.7,29.69,SW,227,0.0,2.0,92,0.02,,---,0.09,47.00,VWS V14.01,2013-11-07 16:39:00,
2013-11-07 11:44:00,55.0,52.7,29.69,WSW,246,3.0,3.0,92,0.03,,---,0.10,56.00,VWS V14.01,2013-11-07 16:44:00,
2013-11-07 11:49:00,55.0,52.7,29.69,SSW,196,4.0,4.0,92,0.03,,---,0.10,47.00,VWS V14.01,2013-11-07 16:49:00,
2013-11-07 11:54:00,55.0,52.7,29.70,WSW,239,2.0,4.0,92,0.04,,---,0.11,40.00,VWS V14.01,2013-11-07 16:54:00,
2013-11-07 11:59:00,55.0,52.7,29.70,WSW,242,3.0,4.0,92,0.04,,---,0.11,42.00,VWS V14.01,2013-11-07 16:59:00,
2013-11-07 12:04:00,54.8,52.5,29.69,West,265,4.0,4.0,92,0.04,,---,0.12,46.00,VWS V14.01,2013-11-07 17:04:00,
2013-11-07 12:09:00,54.8,52.5,29.68,West,265,1.0,4.0,92,0.04,,---,0.12,113.00,VWS V14.01,2013-11-07 17:09:00,
2013-11-07 12:14:00,54.8,52.5,29.68,West,265,3.0,4.0,92,0.04,,---,0.12,116.00,VWS V14.01,2013-11-07 17:14:00,
2013-11-07 12:19:00,55.0,52.7,29.68,West,276,3.0,4.0,92,0.03,,---,0.12,95.00,VWS V14.01,2013-11-07 17:19:00,
2013-11-07 12:24:00,54.8,52.5,29.68,West,280,0.0,8.0,92,0.03,,---,0.12,81.00,VWS V14.01,2013-11-07 17:24:00,
2013-11-07 12:29:00,54.7,52.4,29.67,West,280,4.0,8.0,92,0.03,,---,0.12,79.00,VWS V14.01,2013-11-07 17:29:00,
2013-11-07 12:34:00,54.4,51.8,29.68,West,281,2.0,7.0,91,0.03,,---,0.12,60.00,VWS V14.01,2013-11-07 17:34:00,
2013-11-07 12:39:00,54.1,51.5,29.67,West,280,2.0,7.0,91,0.03,,---,0.12,56.00,VWS V14.01,2013-11-07 17:39:00,
2013-11-07 12:44:00,54.1,51.5,29.68,West,280,0.0,7.0,91,0.03,,---,0.12,28.00,VWS V14.01,2013-11-07 17:44:00,
2013-11-07 12:49:00,53.9,51.3,29.67,West,280,0.0,0.0,91,0.02,,---,0.12,39.00,VWS V14.01,2013-11-07 17:49:00,
2013-11-07 12:54:00,53.9,51.3,29.67,West,280,0.0,1.0,91,0.02,,---,0.12,37.00,VWS V14.01,2013-11-07 17:54:00,
2013-11-07 12:58:00,53.8,51.2,29.67,West,280,2.0,2.0,91,0.02,,---,0.12,51.00,VWS V14.01,2013-11-07 17:58:00,
2013-11-07 13:03:00,53.6,50.7,29.67,West,280,0.0,2.0,90,0.02,,---,0.12,47.00,VWS V14.01,2013-11-07 18:03:00,
2013-11-07 13:08:00,53.5,50.6,29.67,West,280,3.0,3.0,90,0.01,,---,0.12,44.00,VWS V14.01,2013-11-07 18:08:00,
2013-11-07 13:13:00,53.3,50.5,29.67,West,280,0.0,3.0,90,0.01,,---,0.12,35.00,VWS V14.01,2013-11-07 18:13:00,
2013-11-07 13:18:00,53.2,50.3,29.67,West,280,0.0,3.0,90,0.01,,---,0.12,23.00,VWS V14.01,2013-11-07 18:18:00,
2013-11-07 13:23:00,52.9,50.0,29.66,West,280,0.0,0.0,90,0.00,,---,0.12,40.00,VWS V14.01,2013-11-07 18:23:00,
2013-11-07 13:28:00,52.7,49.8,29.67,West,280,0.0,3.0,90,0.00,,---,0.12,32.00,VWS V14.01,2013-11-07 18:28:00,
2013-11-07 13:33:00,52.6,49.8,29.67,West,280,0.0,0.0,90,0.00,,---,0.12,14.00,VWS V14.01,2013-11-07 18:33:00,
2013-11-07 13:38:00,52.4,49.6,29.66,West,280,0.0,0.0,90,0.01,,---,0.13,9.00,VWS V14.01,2013-11-07 18:38:00,
2013-11-07 13:43:00,52.2,49.4,29.66,West,280,0.0,0.0,90,0.01,,---,0.13,14.00,VWS V14.01,2013-11-07 18:43:00,
2013-11-07 13:48:00,52.0,49.2,29.66,West,280,0.0,0.0,90,0.01,,---,0.13,30.00,VWS V14.01,2013-11-07 18:48:00,
2013-11-07 13:53:00,51.9,49.1,29.65,West,280,0.0,0.0,90,0.01,,---,0.13,21.00,VWS V14.01,2013-11-07 18:53:00,
2013-11-07 13:58:00,51.7,48.9,29.65,West,280,0.0,0.0,90,0.01,,---,0.13,25.00,VWS V14.01,2013-11-07 18:58:00,
2013-11-07 14:03:00,51.7,48.9,29.65,West,280,0.0,1.0,90,0.01,,---,0.13,32.00,VWS V14.01,2013-11-07 19:03:00,
2013-11-07 14:08:00,51.6,48.8,29.65,West,280,2.0,2.0,90,0.01,,---,0.13,49.00,VWS V14.01,2013-11-07 19:08:00,
2013-11-07 14:13:00,51.4,48.6,29.65,West,280,4.0,4.0,90,0.01,,---,0.13,84.00,VWS V14.01,2013-11-07 19:13:00,
2013-11-07 14:18:00,51.3,48.5,29.67,West,280,0.0,0.0,90,0.01,,---,0.13,32.00,VWS V14.01,2013-11-07 19:18:00,
2013-11-07 14:23:00,51.1,48.3,29.65,WSW,250,0.0,2.0,90,0.01,,---,0.13,30.00,VWS V14.01,2013-11-07 19:23:00,
2013-11-07 14:28:00,51.0,48.2,29.65,West,279,0.0,3.0,90,0.01,,---,0.13,11.00,VWS V14.01,2013-11-07 19:28:00,
2013-11-07 14:33:00,50.8,48.0,29.67,West,279,1.0,1.0,90,0.01,,---,0.13,5.00,VWS V14.01,2013-11-07 19:33:00,
2013-11-07 14:38:00,50.7,47.9,29.68,West,279,0.0,2.0,90,0.01,,---,0.13,7.00,VWS V14.01,2013-11-07 19:38:00,
2013-11-07 14:43:00,50.5,47.7,29.68,WNW,283,0.0,2.0,90,0.01,,---,0.13,0.00,VWS V14.01,2013-11-07 19:43:00,
2013-11-07 14:48:00,50.4,47.6,29.68,WNW,283,0.0,2.0,90,0.01,,---,0.13,0.00,VWS V14.01,2013-11-07 19:48:00,
2013-11-07 14:53:00,50.2,47.4,29.68,West,273,0.0,6.0,90,0.00,,---,0.13,14.00,VWS V14.01,2013-11-07 19:53:00,
2013-11-07 14:58:00,50.2,47.4,29.68,West,273,0.0,6.0,90,0.00,,---,0.13,7.00,VWS V14.01,2013-11-07 19:58:00,
2013-11-07 15:03:00,49.9,47.1,29.68,West,281,0.0,0.0,90,0.00,,---,0.13,11.00,VWS V14.01,2013-11-07 20:03:00,
2013-11-07 15:08:00,49.9,47.1,29.69,West,281,0.0,2.0,90,0.00,,---,0.13,11.00,VWS V14.01,2013-11-07 20:08:00,
2013-11-07 15:13:00,49.6,46.8,29.70,West,278,3.0,5.0,90,0.00,,---,0.13,5.00,VWS V14.01,2013-11-07 20:13:00,
2013-11-07 15:18:00,49.3,46.5,29.69,West,278,8.0,8.0,90,0.00,,---,0.13,5.00,VWS V14.01,2013-11-07 20:18:00,
2013-11-07 15:23:00,49.0,45.9,29.68,WNW,296,4.0,8.0,89,0.00,,---,0.13,5.00,VWS V14.01,2013-11-07 20:23:00,
2013-11-07 15:28:00,48.6,45.5,29.68,NW,322,0.0,8.0,89,0.00,,---,0.13,9.00,VWS V14.01,2013-11-07 20:28:00,
2013-11-07 15:33:00,48.5,45.1,29.68,NW,321,2.0,2.0,88,0.00,,---,0.13,12.00,VWS V14.01,2013-11-07 20:33:00,
2013-11-07 15:38:00,48.3,44.9,29.68,WNW,294,3.0,4.0,88,0.00,,---,0.13,23.00,VWS V14.01,2013-11-07 20:38:00,
2013-11-07 15:43:00,48.0,44.6,29.68,West,263,1.0,4.0,88,0.00,,---,0.13,11.00,VWS V14.01,2013-11-07 20:43:00,
2013-11-07 15:48:00,47.9,44.2,29.68,NW,313,1.0,4.0,87,0.00,,---,0.13,12.00,VWS V14.01,2013-11-07 20:48:00,
2013-11-07 15:53:00,47.7,44.0,29.68,NNW,343,2.0,3.0,87,0.00,,---,0.13,11.00,VWS V14.01,2013-11-07 20:53:00,
2013-11-07 15:58:00,47.6,43.9,29.68,NW,315,2.0,3.0,87,0.00,,---,0.13,11.00,VWS V14.01,2013-11-07 20:58:00,
2013-11-07 16:03:00,47.4,43.7,29.68,NW,312,0.0,1.0,87,0.00,,---,0.13,7.00,VWS V14.01,2013-11-07 21:03:00,
2013-11-07 16:08:00,47.4,43.7,29.68,NW,312,0.0,2.0,87,0.00,,---,0.13,9.00,VWS V14.01,2013-11-07 21:08:00,
2013-11-07 16:13:00,47.3,43.6,29.68,NW,312,0.0,2.0,87,0.00,,---,0.13,7.00,VWS V14.01,2013-11-07 21:13:00,
2013-11-07 16:18:00,47.1,43.4,29.68,NW,312,0.0,0.0,87,0.00,,---,0.13,0.00,VWS V14.01,2013-11-07 21:18:00,
2013-11-07 16:23:00,47.0,43.3,29.69,NW,312,0.0,0.0,87,0.00,,---,0.13,0.00,VWS V14.01,2013-11-07 21:23:00,
2013-11-07 16:28:00,46.8,43.1,29.68,NNE,30,0.0,1.0,87,0.00,,---,0.13,0.00,VWS V14.01,2013-11-07 21:28:00,
2013-11-07 16:33:00,46.5,42.8,29.69,NW,313,0.0,0.0,87,0.00,,---,0.13,0.00,VWS V14.01,2013-11-07 21:33:00,
2013-11-07 16:38:00,46.2,42.0,29.69,NW,310,0.0,7.0,85,0.00,,---,0.13,0.00,VWS V14.01,2013-11-07 21:38:00,
2013-11-07 16:43:00,45.9,41.3,29.69,NW,316,0.0,7.0,84,0.00,,---,0.13,0.00,VWS V14.01,2013-11-07 21:43:00,
2013-11-07 16:48:00,45.8,41.2,29.70,West,267,0.0,0.0,84,0.00,,---,0.13,0.00,VWS V14.01,2013-11-07 21:48:00,
2013-11-07 16:53:00,45.6,40.7,29.69,West,264,1.0,3.0,83,0.00,,---,0.13,0.00,VWS V14.01,2013-11-07 21:53:00,
2013-11-07 16:58:00,45.5,40.7,29.70,West,271,1.0,4.0,83,0.00,,---,0.13,0.00,VWS V14.01,2013-11-07 21:58:00,
2013-11-07 17:03:00,45.3,40.5,29.70,NW,304,1.0,4.0,83,0.00,,---,0.13,0.00,VWS V14.01,2013-11-07 22:03:00,
2013-11-07 17:08:00,45.2,40.3,29.70,West,268,0.0,6.0,83,0.00,,---,0.13,0.00,VWS V14.01,2013-11-07 22:08:00,
2013-11-07 17:13:00,45.1,40.6,29.71,WNW,302,0.0,6.0,84,0.00,,---,0.13,0.00,VWS V14.01,2013-11-07 22:13:00,
2013-11-07 17:18:00,44.9,40.4,29.71,West,266,2.0,6.0,84,0.00,,---,0.13,0.00,VWS V14.01,2013-11-07 22:18:00,
2013-11-07 17:23:00,44.8,40.0,29.72,West,277,2.0,8.0,83,0.00,,---,0.13,0.00,VWS V14.01,2013-11-07 22:23:00,
2013-11-07 17:28:00,44.6,39.8,29.72,NW,306,3.0,8.0,83,0.00,,---,0.13,0.00,VWS V14.01,2013-11-07 22:28:00,
2013-11-07 17:33:00,44.3,39.2,29.73,NW,312,3.0,3.0,82,0.00,,---,0.13,0.00,VWS V14.01,2013-11-07 22:33:00,
2013-11-07 17:38:00,44.2,38.8,29.73,NW,304,5.0,5.0,81,0.00,,---,0.13,0.00,VWS V14.01,2013-11-07 22:38:00,
2013-11-07 17:43:00,44.0,38.2,29.73,WNW,288,0.0,5.0,80,0.00,,---,0.13,0.00,VWS V14.01,2013-11-07 22:43:00,
2013-11-07 17:48:00,43.9,38.1,29.73,NW,313,1.0,3.0,80,0.00,,---,0.13,0.00,VWS V14.01,2013-11-07 22:48:00,
2013-11-07 17:53:00,43.7,38.0,29.73,NW,310,1.0,3.0,80,0.00,,---,0.13,0.00,VWS V14.01,2013-11-07 22:53:00,
2013-11-07 17:58:00,43.6,37.8,29.73,NW,309,2.0,3.0,80,0.00,,---,0.13,0.00,VWS V14.01,2013-11-07 22:58:00,
2013-11-07 18:03:00,43.3,37.2,29.74,WSW,250,1.0,1.0,79,0.00,,---,0.13,0.00,VWS V14.01,2013-11-07 23:03:00,
2013-11-07 18:08:00,43.2,36.8,29.74,West,276,2.0,4.0,78,0.00,,---,0.13,0.00,VWS V14.01,2013-11-07 23:08:00,
2013-11-07 18:13:00,43.0,36.3,29.75,WNW,290,4.0,4.0,77,0.00,,---,0.13,0.00,VWS V14.01,2013-11-07 23:13:00,
2013-11-07 18:18:00,42.7,36.0,29.74,WNW,286,0.0,3.0,77,0.00,,---,0.13,0.00,VWS V14.01,2013-11-07 23:18:00,
2013-11-07 18:23:00,42.6,35.6,29.75,West,277,3.0,4.0,76,0.00,,---,0.13,0.00,VWS V14.01,2013-11-07 23:23:00,
2013-11-07 18:28:00,42.3,35.3,29.75,West,277,0.0,4.0,76,0.00,,---,0.13,0.00,VWS V14.01,2013-11-07 23:28:00,
2013-11-07 18:33:00,42.2,35.2,29.75,West,277,1.0,3.0,76,0.00,,---,0.13,0.00,VWS V14.01,2013-11-07 23:33:00,
2013-11-07 18:38:00,41.9,34.9,29.75,West,277,0.0,3.0,76,0.00,,---,0.13,0.00,VWS V14.01,2013-11-07 23:38:00,
2013-11-07 18:43:00,41.7,34.7,29.75,West,278,1.0,4.0,76,0.00,,---,0.13,0.00,VWS V14.01,2013-11-07 23:43:00,
2013-11-07 18:48:00,41.7,35.0,29.76,West,278,0.0,4.0,77,0.00,,---,0.13,0.00,VWS V14.01,2013-11-07 23:48:00,
2013-11-07 18:53:00,41.6,34.3,29.76,West,279,0.0,8.0,75,0.00,,---,0.13,0.00,VWS V14.01,2013-11-07 23:53:00,
2013-11-07 18:58:00,41.6,34.3,29.76,West,277,0.0,8.0,75,0.00,,---,0.13,0.00,VWS V14.01,2013-11-07 23:58:00,
2013-11-07 19:03:00,41.4,33.8,29.76,WNW,288,0.0,3.0,74,0.00,,---,0.13,0.00,VWS V14.01,2013-11-08 00:03:00,
2013-11-07 19:08:00,41.4,33.4,29.76,NW,317,3.0,4.0,73,0.00,,---,0.13,0.00,VWS V14.01,2013-11-08 00:08:00,
2013-11-07 19:13:00,41.4,33.1,29.76,NW,304,1.0,7.0,72,0.00,,---,0.13,0.00,VWS V14.01,2013-11-08 00:13:00,
2013-11-07 19:18:00,41.3,33.0,29.76,West,275,0.0,2.0,72,0.00,,---,0.13,0.00,VWS V14.01,2013-11-08 00:18:00,
2013-11-07 19:23:00,41.3,33.0,29.76,WNW,284,0.0,2.0,72,0.00,,---,0.13,0.00,VWS V14.01,2013-11-08 00:23:00,
2013-11-07 19:28:00,41.2,32.9,29.76,West,273,0.0,3.0,72,0.00,,---,0.13,0.00,VWS V14.01,2013-11-08 00:28:00,
2013-11-07 19:33:00,41.2,32.9,29.76,NNW,343,1.0,1.0,72,0.00,,---,0.13,0.00,VWS V14.01,2013-11-08 00:33:00,
2013-11-07 19:38:00,41.0,32.7,29.76,NNW,334,1.0,2.0,72,0.00,,---,0.13,0.00,VWS V14.01,2013-11-08 00:38:00,
2013-11-07 19:43:00,40.9,32.6,29.76,NW,319,0.0,2.0,72,0.00,,---,0.13,0.00,VWS V14.01,2013-11-08 00:43:00,
2013-11-07 19:48:00,40.9,32.6,29.77,NW,314,0.0,0.0,72,0.00,,---,0.13,0.00,VWS V14.01,2013-11-08 00:48:00,
2013-11-07 19:53:00,40.7,32.7,29.77,NW,314,0.0,0.0,73,0.00,,---,0.13,0.00,VWS V14.01,2013-11-08 00:53:00,
2013-11-07 19:58:00,40.6,32.3,29.77,South,180,0.0,2.0,72,0.00,,---,0.13,0.00,VWS V14.01,2013-11-08 00:58:00,
2013-11-07 20:03:00,40.6,32.3,29.77,West,277,0.0,0.0,72,0.00,,---,0.13,0.00,VWS V14.01,2013-11-08 01:03:00,
2013-11-07 20:08:00,40.4,32.1,29.77,WNW,284,1.0,4.0,72,0.00,,---,0.13,0.00,VWS V14.01,2013-11-08 01:08:00,
2013-11-07 20:13:00,40.4,32.4,29.76,WNW,284,0.0,4.0,73,0.00,,---,0.13,0.00,VWS V14.01,2013-11-08 01:13:00,
2013-11-07 20:18:00,40.4,32.8,29.77,WNW,284,0.0,0.0,74,0.00,,---,0.13,0.00,VWS V14.01,2013-11-08 01:18:00,
2013-11-07 20:23:00,40.3,33.0,29.77,WSW,247,2.0,2.0,75,0.00,,---,0.13,0.00,VWS V14.01,2013-11-08 01:23:00,
2013-11-07 20:28:00,40.2,32.6,29.77,West,259,0.0,4.0,74,0.00,,---,0.13,0.00,VWS V14.01,2013-11-08 01:28:00,
2013-11-07 20:33:00,40.2,32.6,29.77,WNW,286,0.0,0.0,74,0.00,,---,0.13,0.00,VWS V14.01,2013-11-08 01:33:00,
2013-11-07 20:38:00,40.0,32.4,29.77,WNW,286,0.0,2.0,74,0.00,,---,0.13,0.00,VWS V14.01,2013-11-08 01:38:00,
2013-11-07 20:43:00,40.0,32.4,29.77,WNW,284,0.0,4.0,74,0.00,,---,0.13,0.00,VWS V14.01,2013-11-08 01:43:00,
2013-11-07 20:48:00,40.0,32.1,29.77,WNW,284,0.0,4.0,73,0.00,,---,0.13,0.00,VWS V14.01,2013-11-08 01:48:00,
2013-11-07 20:53:00,39.9,32.0,29.77,NNW,337,0.0,2.0,73,0.00,,---,0.13,0.00,VWS V14.01,2013-11-08 01:53:00,
2013-11-07 20:58:00,39.9,32.0,29.77,NNW,336,0.0,2.0,73,0.00,,---,0.13,0.00,VWS V14.01,2013-11-08 01:58:00,
2013-11-07 21:03:00,39.9,32.0,29.77,NW,317,2.0,2.0,73,0.00,,---,0.13,0.00,VWS V14.01,2013-11-08 02:03:00,
2013-11-07 21:08:00,39.7,31.8,29.77,NW,317,0.0,2.0,73,0.00,,---,0.13,0.00,VWS V14.01,2013-11-08 02:08:00,
2013-11-07 21:13:00,39.7,32.1,29.77,NW,305,3.0,3.0,74,0.00,,---,0.13,0.00,VWS V14.01,2013-11-08 02:13:00,
2013-11-07 21:18:00,39.6,32.0,29.77,NW,311,0.0,0.0,74,0.00,,---,0.13,0.00,VWS V14.01,2013-11-08 02:18:00,
2013-11-07 21:23:00,39.6,32.0,29.77,West,280,3.0,3.0,74,0.00,,---,0.13,0.00,VWS V14.01,2013-11-08 02:23:00,
2013-11-07 21:28:00,39.4,31.5,29.77,West,279,0.0,3.0,73,0.00,,---,0.13,0.00,VWS V14.01,2013-11-08 02:28:00,
2013-11-07 21:33:00,39.4,31.5,29.77,West,280,0.0,0.0,73,0.00,,---,0.13,0.00,VWS V14.01,2013-11-08 02:33:00,
2013-11-07 21:38:00,39.4,31.5,29.77,West,275,1.0,3.0,73,0.00,,---,0.13,0.00,VWS V14.01,2013-11-08 02:38:00,
2013-11-07 21:43:00,39.3,31.0,29.77,West,275,0.0,3.0,72,0.00,,---,0.13,0.00,VWS V14.01,2013-11-08 02:43:00,
2013-11-07 21:48:00,39.3,31.4,29.77,NNW,340,0.0,1.0,73,0.00,,---,0.13,0.00,VWS V14.01,2013-11-08 02:48:00,
2013-11-07 21:53:00,39.3,31.0,29.77,West,269,1.0,3.0,72,0.00,,---,0.13,0.00,VWS V14.01,2013-11-08 02:53:00,
2013-11-07 21:58:00,39.3,31.0,29.76,West,279,0.0,3.0,72,0.00,,---,0.13,0.00,VWS V14.01,2013-11-08 02:58:00,
2013-11-07 22:03:00,39.2,31.0,29.76,WNW,298,0.0,0.0,72,0.00,,---,0.13,0.00,VWS V14.01,2013-11-08 03:03:00,
2013-11-07 22:08:00,39.2,31.0,29.76,WNW,284,0.0,2.0,72,0.00,,---,0.13,0.00,VWS V14.01,2013-11-08 03:08:00,
2013-11-07 22:13:00,39.2,30.6,29.76,WNW,284,0.0,2.0,71,0.00,,---,0.13,0.00,VWS V14.01,2013-11-08 03:13:00,
2013-11-07 22:18:00,39.2,31.0,29.76,WNW,284,1.0,2.0,72,0.00,,---,0.13,0.00,VWS V14.01,2013-11-08 03:18:00,
2013-11-07 22:23:00,39.2,31.3,29.76,WNW,283,0.0,2.0,73,0.00,,---,0.13,0.00,VWS V14.01,2013-11-08 03:23:00,
2013-11-07 22:28:00,39.2,31.0,29.76,WNW,283,0.0,2.0,72,0.00,,---,0.13,0.00,VWS V14.01,2013-11-08 03:28:00,
2013-11-07 22:33:00,39.2,31.3,29.76,WNW,283,0.0,0.0,73,0.00,,---,0.13,0.00,VWS V14.01,2013-11-08 03:33:00,
2013-11-07 22:38:00,39.0,31.1,29.76,West,279,0.0,0.0,73,0.00,,---,0.13,0.00,VWS V14.01,2013-11-08 03:38:00,
2013-11-07 22:43:00,39.0,30.8,29.76,West,279,0.0,2.0,72,0.00,,---,0.13,0.00,VWS V14.01,2013-11-08 03:43:00,
2013-11-07 22:48:00,38.9,30.7,29.76,West,279,0.0,0.0,72,0.00,,---,0.13,0.00,VWS V14.01,2013-11-08 03:48:00,
2013-11-07 22:53:00,38.9,30.7,29.76,West,279,0.0,1.0,72,0.00,,---,0.13,0.00,VWS V14.01,2013-11-08 03:53:00,
2013-11-07 22:58:00,38.7,30.5,29.77,NNW,346,0.0,3.0,72,0.00,,---,0.13,0.00,VWS V14.01,2013-11-08 03:58:00,
2013-11-07 23:03:00,38.7,30.5,29.77,West,281,1.0,1.0,72,0.00,,---,0.13,0.00,VWS V14.01,2013-11-08 04:03:00,
2013-11-07 23:08:00,38.6,30.0,29.76,SSW,213,1.0,2.0,71,0.00,,---,0.13,0.00,VWS V14.01,2013-11-08 04:08:00,
2013-11-07 23:13:00,38.4,29.5,29.77,NW,313,0.0,7.0,70,0.00,,---,0.13,0.00,VWS V14.01,2013-11-08 04:13:00,
2013-11-07 23:18:00,38.4,29.5,29.77,NW,315,0.0,1.0,70,0.00,,---,0.13,0.00,VWS V14.01,2013-11-08 04:18:00,
2013-11-07 23:23:00,38.4,29.5,29.77,NW,317,3.0,3.0,70,0.00,,---,0.13,0.00,VWS V14.01,2013-11-08 04:23:00,
2013-11-07 23:28:00,38.3,29.4,29.77,NW,304,2.0,3.0,70,0.00,,---,0.13,0.00,VWS V14.01,2013-11-08 04:28:00,
2013-11-07 23:33:00,38.3,29.4,29.77,West,265,0.0,0.0,70,0.00,,---,0.13,0.00,VWS V14.01,2013-11-08 04:33:00,
2013-11-07 23:38:00,38.3,29.4,29.77,West,265,0.0,0.0,70,0.00,,---,0.13,0.00,VWS V14.01,2013-11-08 04:38:00,
2013-11-07 23:43:00,38.2,28.9,29.77,West,276,0.0,3.0,69,0.00,,---,0.13,0.00,VWS V14.01,2013-11-08 04:43:00,
2013-11-07 23:48:00,38.2,28.9,29.77,West,272,1.0,1.0,69,0.00,,---,0.13,0.00,VWS V14.01,2013-11-08 04:48:00,
2013-11-07 23:53:00,38.0,29.1,29.78,WNW,298,0.0,4.0,70,0.00,,---,0.13,0.00,VWS V14.01,2013-11-08 04:53:00,
2013-11-07 23:58:00,38.0,28.8,29.78,WNW,298,0.0,4.0,69,0.00,,---,0.13,0.00,VWS V14.01,2013-11-08 04:58:00,